Flag for U.S.A. Weather past 2 weeks in Post Falls, Idaho, U.S.A.

27 °F


Feels Like: 13 °F
Forecast: 20 / 33 °F
Wind: 20 mph from Northeast

Location: Coeur d'Alene Weather Reporting System

Current Time: Nov 25, 2015 at 2:46:11 AM

Latest Report: Nov 25, 2015 at 2:15 AM

Visibility: 10 mi

Pressure: 30.04 "Hg (27.62 "Hg at 664m altitude)

Humidity: 59%

Dew point: 14 °F

Location of Post FallsLocation

Historic Weather in Post Falls — Graph


Post Falls temperature yesterday

Maximum temperature yesterday: 36 °F (at 12:15 PM)
Minimum temperature yesterday: 27 °F (at 11:55 PM)
Average temperature yesterday: 32 °F

Past Weeks' High & Low Weather Summary

High55 °F (Nov 13, 2:55 PM)100% (Nov 10, 9:15 AM)30.53 "Hg (Nov 10, 9:15 AM)
Low19 °F (Nov 21, 2:15 AM)11% (Nov 23, 1:35 PM)29.36 "Hg (Nov 17, 4:55 PM)
Average36 °F74%30.00 "Hg
* Reported Nov 10 1:15 AM — Nov 25 1:35 AM, Post Falls, Weather by CustomWeather, © 2015

Note: Actual official high and low records may vary slightly from our data, if they occured in-between our weather recording intervals... More about our weather records


Post Falls weather history for previous 24 hours

Time TempWeatherWind HumidityBarometerVisibility
1:35 AM
Wed, Nov 25
27 °FClear.21 mph59%30.03 "Hg10 mi
1:15 AM27 °FClear.21 mph64%30.02 "Hg10 mi
12:55 AM27 °FClear.20 mph64%30.01 "Hg10 mi
12:35 AMN/AClear.20 mphN/A29.99 "Hg10 mi
12:15 AM27 °FClear.22 mph64%29.99 "Hg10 mi
11:55 PM
Tue, Nov 24
27 °FClear.21 mph64%29.99 "Hg10 mi
11:15 PMN/AClear.23 mphN/A29.97 "Hg10 mi
10:55 PM28 °FClear.23 mph64%29.97 "Hg10 mi
10:15 PM28 °FPassing clouds.23 mph64%29.96 "Hg10 mi
9:55 PM28 °FPassing clouds.23 mph69%29.95 "Hg10 mi
9:15 PM30 °FOvercast.21 mph64%29.93 "Hg10 mi
8:55 PM30 °FOvercast.21 mph64%29.93 "Hg10 mi
8:35 PM30 °FOvercast.22 mph69%29.91 "Hg10 mi
7:55 PM30 °FOvercast.22 mph69%29.90 "Hg10 mi
7:35 PM30 °FOvercast.21 mph69%29.89 "Hg10 mi
7:15 PM30 °FMostly cloudy.23 mph75%29.89 "Hg10 mi
6:55 PMN/APassing clouds.22 mphN/A29.87 "Hg10 mi
6:35 PMN/APartly cloudy.23 mphN/A29.87 "Hg10 mi
6:15 PMN/APassing clouds.21 mphN/A29.86 "Hg10 mi
5:55 PMN/APassing clouds.20 mphN/A29.85 "Hg10 mi
5:35 PMN/APassing clouds.22 mphN/A29.84 "Hg10 mi
5:15 PMN/AMostly cloudy.22 mphN/A29.83 "Hg10 mi
3:55 PMN/AOvercast.22 mphN/A29.80 "Hg10 mi
3:35 PMN/AOvercast.26 mphN/A29.79 "Hg10 mi
3:15 PMN/AOvercast.25 mphN/A29.77 "Hg10 mi
2:55 PMN/ABroken clouds.25 mphN/A29.76 "Hg10 mi
2:15 PM34 °FCloudy.21 mph87%29.74 "Hg3 mi
1:55 PM34 °FMostly cloudy.20 mph87%29.74 "Hg4 mi
1:35 PM34 °FCloudy.18 mph87%29.73 "Hg9 mi
12:55 PM36 °FMore clouds than sun.18 mph87%29.73 "Hg10 mi
12:35 PM36 °FPartly sunny.17 mph87%29.72 "Hg10 mi
12:15 PM36 °FPartly sunny.14 mph87%29.72 "Hg10 mi
11:55 AM34 °FCloudy.13 mph87%29.72 "Hg10 mi
11:35 AM34 °FMostly cloudy.10 mph87%29.71 "Hg8 mi
11:15 AM34 °FMostly cloudy.9 mph87%29.71 "Hg8 mi
10:55 AM34 °FMostly cloudy.7 mph87%29.71 "Hg2 mi
10:35 AM34 °FLow clouds.3 mph87%29.72 "Hg1 mi
10:15 AM32 °FMostly cloudy.3 mph87%29.72 "Hg2 mi
9:55 AM30 °FLow clouds.3 mph93%29.72 "Hg1 mi
9:35 AM30 °FLow clouds.5 mph93%29.71 "Hg1 mi
9:15 AM30 °FLow clouds.5 mph93%29.71 "Hg1 mi
8:55 AM30 °FLow clouds.6 mph93%29.70 "Hg1 mi
8:35 AM32 °FLow clouds.3 mph87%29.70 "Hg1 mi
7:55 AM32 °FOvercast.6 mph87%29.69 "Hg1 mi
7:35 AM32 °FOvercast.6 mph87%29.69 "Hg1 mi
7:15 AM32 °FLow clouds.6 mph87%29.68 "Hg1 mi
6:55 AM30 °FLow clouds.5 mph93%29.67 "Hg2 mi
6:35 AM30 °FLow clouds.6 mph93%29.67 "Hg1 mi
6:15 AM30 °FLow clouds.6 mph93%29.66 "Hg1 mi
5:55 AM30 °FLow clouds.5 mph93%29.66 "Hg2 mi
5:35 AM30 °FLow clouds.5 mph93%29.66 "Hg2 mi
5:15 AM30 °FMostly cloudy.5 mph93%29.66 "Hg2 mi
4:55 AM30 °FLow clouds.5 mph93%29.66 "Hg2 mi
4:35 AM30 °FMostly cloudy.3 mph93%29.67 "Hg2 mi
4:15 AM30 °FOvercast.No wind93%29.67 "Hg2 mi
3:55 AM30 °FOvercast.No wind93%29.67 "Hg2 mi
3:35 AM30 °FOvercast.No wind93%29.68 "Hg2 mi
3:15 AM32 °FOvercast.No wind87%29.68 "Hg2 mi
2:55 AM32 °FMostly cloudy.No wind87%29.68 "Hg5 mi
2:35 AM34 °FOvercast.6 mph81%29.69 "Hg7 mi
Weather by CustomWeather, © 2015

See weather overviewHow to use our weather pages